When you browse on this site, cookies collect data to enhance your experience and personalize the content and advertising you see.
Visit our Privacy Policy to learn more. By continuing to use the site, you agree to this use of cookies and data.

Hourly Weather Halych

Today, 4 July, Saturday

Time Temperature Precipitation Wind Pressure Humidity
00:00 +18°C° 0 mm 3 mps 730 mmHg 95%
01:00 +18°C° 0 mm 3 mps 731 mmHg 96%
02:00 +18°C° 0 mm 3 mps 731 mmHg 96%
03:00 +18°C° 0 mm 3 mps 731 mmHg 96%
04:00 +17°C° 0 mm 3 mps 731 mmHg 96%
05:00 +17°C° 0 mm 3 mps 731 mmHg 96%
06:00 +18°C° 0 mm 3 mps 732 mmHg 94%
07:00 +19°C° 0 mm 3 mps 732 mmHg 92%
08:00 +20°C° 0 mm 3 mps 732 mmHg 89%
09:00 +21°C° 0 mm 3 mps 732 mmHg 85%
10:00 +22°C° 0 mm 3 mps 733 mmHg 81%
11:00 +24°C° 0 mm 3 mps 733 mmHg 76%
12:00 +24°C° 0.1 mm 3 mps 733 mmHg 75%
13:00 +24°C° 0.1 mm 3 mps 732 mmHg 75%
14:00 +25°C° 0.1 mm 4 mps 732 mmHg 74%
15:00 +25°C° 0 mm 3 mps 732 mmHg 75%
16:00 +25°C° 0 mm 3 mps 732 mmHg 75%
17:00 +24°C° 0 mm 3 mps 732 mmHg 76%
18:00 +22°C° 0.1 mm 3 mps 732 mmHg 80%
19:00 +21°C° 0.1 mm 2 mps 732 mmHg 84%
20:00 +20°C° 0.1 mm 2 mps 732 mmHg 87%
21:00 +20°C° 0 mm 2 mps 732 mmHg 89%
22:00 +19°C° 0 mm 2 mps 732 mmHg 91%
23:00 +18°C° 0 mm 2 mps 732 mmHg 92%

Tomorrow, 5 July, Sunday

Time Temperature Precipitation Wind Pressure Humidity
00:00 +18°C° 0 mm 2 mps 732 mmHg 93%
01:00 +17°C° 0 mm 2 mps 732 mmHg 93%
02:00 +17°C° 0 mm 2 mps 732 mmHg 93%
03:00 +17°C° 0 mm 2 mps 732 mmHg 93%
04:00 +16°C° 0 mm 1 mps 732 mmHg 94%
05:00 +16°C° 0 mm 1 mps 732 mmHg 94%
06:00 +19°C° 0 mm 1 mps 732 mmHg 90%
07:00 +20°C° 0 mm 1 mps 732 mmHg 86%
08:00 +22°C° 0 mm 1 mps 733 mmHg 81%
09:00 +23°C° 0 mm 1 mps 733 mmHg 78%
10:00 +24°C° 0 mm 1 mps 733 mmHg 74%
11:00 +25°C° 0 mm 1 mps 733 mmHg 70%
12:00 +25°C° 0.1 mm 2 mps 733 mmHg 69%
13:00 +25°C° 0.1 mm 2 mps 732 mmHg 69%
14:00 +26°C° 0.1 mm 2 mps 732 mmHg 68%
15:00 +26°C° 0.1 mm 2 mps 732 mmHg 69%
16:00 +26°C° 0.1 mm 2 mps 732 mmHg 70%
17:00 +26°C° 0.1 mm 2 mps 732 mmHg 71%
18:00 +24°C° 0 mm 2 mps 732 mmHg 74%
19:00 +23°C° 0 mm 1 mps 732 mmHg 78%
20:00 +22°C° 0 mm 1 mps 731 mmHg 81%
21:00 +21°C° 0 mm 1 mps 732 mmHg 83%
22:00 +18°C° 0 mm 0 mps 732 mmHg 85%
23:00 +17°C° 0 mm 0 mps 732 mmHg 87%

Day after tomorrow, 6 July, Monday

Time Temperature Precipitation Wind Pressure Humidity
00:00 +17°C° 0 mm 0 mps 731 mmHg 88%
01:00 +17°C° 0 mm 0 mps 731 mmHg 88%
02:00 +18°C° 0 mm 1 mps 731 mmHg 89%
03:00 +18°C° 0 mm 1 mps 731 mmHg 90%
04:00 +18°C° 0 mm 1 mps 731 mmHg 91%
05:00 +18°C° 0 mm 1 mps 730 mmHg 92%
06:00 +20°C° 0 mm 1 mps 730 mmHg 89%
07:00 +20°C° 0 mm 2 mps 730 mmHg 86%
08:00 +23°C° 0 mm 2 mps 730 mmHg 84%
09:00 +24°C° 0 mm 2 mps 730 mmHg 81%
10:00 +25°C° 0 mm 2 mps 730 mmHg 78%
11:00 +26°C° 0 mm 2 mps 730 mmHg 75%
12:00 +26°C° 0.1 mm 2 mps 730 mmHg 74%
13:00 +27°C° 0.1 mm 2 mps 729 mmHg 72%
14:00 +27°C° 0.1 mm 2 mps 729 mmHg 71%
15:00 +27°C° 0.1 mm 2 mps 728 mmHg 71%
16:00 +27°C° 0.1 mm 2 mps 728 mmHg 72%
17:00 +27°C° 0.1 mm 2 mps 728 mmHg 73%
18:00 +26°C° 0.3 mm 2 mps 728 mmHg 77%
19:00 +25°C° 0.3 mm 2 mps 727 mmHg 82%
20:00 +24°C° 0.3 mm 2 mps 727 mmHg 87%
21:00 +23°C° 0.6 mm 2 mps 727 mmHg 88%
22:00 +22°C° 0.6 mm 1 mps 727 mmHg 89%
23:00 +21°C° 0.6 mm 1 mps 727 mmHg 90%

7 July, Tuesday

Time Temperature Precipitation Wind Pressure Humidity
00:00 +20°C° 0.4 mm 2 mps 728 mmHg 91%
01:00 +19°C° 0.4 mm 3 mps 728 mmHg 92%
02:00 +19°C° 0.4 mm 4 mps 728 mmHg 94%
03:00 +18°C° 0.1 mm 4 mps 728 mmHg 95%
04:00 +18°C° 0.1 mm 4 mps 729 mmHg 95%
05:00 +17°C° 0.1 mm 4 mps 729 mmHg 96%
06:00 +17°C° 0 mm 4 mps 729 mmHg 94%
07:00 +16°C° 0 mm 5 mps 730 mmHg 91%
08:00 +16°C° 0 mm 5 mps 731 mmHg 89%
09:00 +16°C° 0 mm 5 mps 731 mmHg 85%
10:00 +17°C° 0 mm 5 mps 731 mmHg 81%
11:00 +17°C° 0 mm 5 mps 732 mmHg 76%
12:00 +19°C° 0 mm 5 mps 732 mmHg 74%
13:00 +19°C° 0 mm 5 mps 731 mmHg 72%
14:00 +20°C° 0 mm 5 mps 731 mmHg 69%
15:00 +20°C° 0 mm 4 mps 731 mmHg 71%
16:00 +19°C° 0 mm 4 mps 731 mmHg 72%
17:00 +19°C° 0 mm 4 mps 731 mmHg 73%
18:00 +18°C° 0 mm 3 mps 731 mmHg 76%
19:00 +17°C° 0 mm 3 mps 732 mmHg 78%
20:00 +17°C° 0 mm 2 mps 732 mmHg 81%
21:00 +16°C° 0 mm 2 mps 732 mmHg 82%
22:00 +15°C° 0 mm 2 mps 732 mmHg 83%
23:00 +14°C° 0 mm 2 mps 732 mmHg 84%

8 July, Wednesday

Time Temperature Precipitation Wind Pressure Humidity
00:00 +14°C° 0 mm 2 mps 733 mmHg 85%
01:00 +14°C° 0 mm 2 mps 733 mmHg 86%
02:00 +13°C° 0 mm 2 mps 733 mmHg 87%
03:00 +13°C° 0 mm 2 mps 733 mmHg 88%
04:00 +12°C° 0 mm 2 mps 733 mmHg 89%
05:00 +12°C° 0 mm 2 mps 733 mmHg 90%
06:00 +13°C° 0 mm 2 mps 733 mmHg 88%
07:00 +13°C° 0 mm 3 mps 734 mmHg 85%
08:00 +14°C° 0 mm 3 mps 734 mmHg 82%
09:00 +16°C° 0 mm 3 mps 734 mmHg 77%
10:00 +17°C° 0 mm 3 mps 734 mmHg 73%
11:00 +18°C° 0 mm 3 mps 735 mmHg 68%
12:00 +18°C° 0 mm 3 mps 735 mmHg 67%
13:00 +19°C° 0 mm 3 mps 735 mmHg 66%
14:00 +19°C° 0 mm 3 mps 734 mmHg 64%
15:00 +19°C° 0 mm 3 mps 734 mmHg 65%
16:00 +19°C° 0 mm 3 mps 734 mmHg 66%
17:00 +19°C° 0 mm 3 mps 734 mmHg 67%
18:00 +17°C° 0 mm 3 mps 734 mmHg 72%
19:00 +16°C° 0 mm 2 mps 735 mmHg 77%
20:00 +15°C° 0 mm 1 mps 735 mmHg 83%
21:00 +14°C° 0 mm 1 mps 735 mmHg 84%
22:00 +13°C° 0 mm 1 mps 735 mmHg 86%
23:00 +12°C° 0 mm 1 mps 735 mmHg 88%

9 July, Thursday

Time Temperature Precipitation Wind Pressure Humidity
00:00 +12°C° 0 mm 1 mps 736 mmHg 88%
01:00 +11°C° 0 mm 1 mps 736 mmHg 89%
02:00 +11°C° 0 mm 1 mps 736 mmHg 89%
03:00 +11°C° 0 mm 1 mps 736 mmHg 89%
04:00 +11°C° 0 mm 1 mps 736 mmHg 89%
05:00 +11°C° 0 mm 1 mps 736 mmHg 89%
06:00 +13°C° 0 mm 1 mps 736 mmHg 84%
07:00 +14°C° 0 mm 1 mps 736 mmHg 80%
08:00 +16°C° 0 mm 1 mps 736 mmHg 76%
09:00 +18°C° 0 mm 1 mps 736 mmHg 71%
10:00 +20°C° 0 mm 1 mps 736 mmHg 66%
11:00 +20°C° 0 mm 2 mps 735 mmHg 61%
12:00 +21°C° 0 mm 1 mps 735 mmHg 58%
13:00 +22°C° 0 mm 1 mps 735 mmHg 56%
14:00 +23°C° 0 mm 1 mps 735 mmHg 54%
15:00 +23°C° 0 mm 1 mps 734 mmHg 54%
16:00 +23°C° 0 mm 1 mps 734 mmHg 54%
17:00 +23°C° 0 mm 1 mps 734 mmHg 55%
18:00 +22°C° 0 mm 1 mps 734 mmHg 61%
19:00 +20°C° 0 mm 1 mps 734 mmHg 67%
20:00 +18°C° 0 mm 2 mps 734 mmHg 73%
21:00 +17°C° 0 mm 2 mps 734 mmHg 75%
22:00 +16°C° 0 mm 2 mps 734 mmHg 76%
23:00 +15°C° 0 mm 2 mps 734 mmHg 78%
Show more